Location: Gro�bocka
(50.8204°N, 11.9702°E)
Time: 05:51:50
(UTC+00:00)

Cosmos 1408 - Pass Details

Date: 29 October 2020
Orbit: 470 x 492 km, 82.6° (Epoch: 01 December)

Event Time Altitude Azimuth Distance (km) Brightness Sun altitude
Rises 16:36:41 0° 0° (N) 2,558 6.1 -7.7°
Reaches altitude 10° 16:39:08 10° 16° (NNE) 1,678 5.0 -8.0°
Maximum altitude 16:42:03 22° 69° (ENE) 1,111 3.8 -8.5°
Drops below altitude 10° 16:44:59 10° 122° (ESE) 1,677 4.9 -8.9°
Sets 16:47:26 0° 138° (SE) 2,557 5.9 -9.3°
